This demonstration page uses our WeatherBlox Daily Observations layout. Learn more.

Left ArrowRight Arrow

Hourly Observations for April 24, 2019

Temp ( °F °C ) Dew Point ( °F °C ) Humidity (%) Winds ( mph kmh ) Pressure ( in mb ) Visibility ( mi km ) Precip ( " mm )
12:15 am 00:15 Clear 49 9.2 31 -0.7 50 50 SSE 3 6 30.00 1016 10 16 0.00 0.00
12:35 am 00:35 Clear 49 9.7 29 -1.5 46 46 S 3 6 29.98 1015 10 16 0.00 0.00
12:55 am 00:55 Clear 46 7.9 30 -1 54 54 Calm 30.00 1016 10 16 0.00 0.00
1:15 am 01:15 Clear 43 6 32 0.2 67 67 Calm 30.01 1016 10 16 0.00 0.00
1:35 am 01:35 Clear 40 4.6 32 0.2 73 73 Calm 30.02 1017 10 16 0.00 0.00
1:55 am 01:55 Clear 40 4.5 33 0.5 76 76 Calm 30.02 1017 10 16 0.00 0.00
2:15 am 02:15 Clear 39 3.9 32 0 76 76 Calm 30.02 1017 10 16 0.00 0.00
2:35 am 02:35 Clear 37 3 31 -0.5 78 78 Calm 30.03 1017 10 16 0.00 0.00
2:55 am 02:55 Clear 38 3.1 31 -0.8 76 76 Calm 30.02 1016 10 16 0.00 0.00
3:15 am 03:15 Clear 38 3.2 31 -0.3 78 78 Calm 30.01 1016 10 16 0.00 0.00
3:35 am 03:35 Clear 37 2.7 30 -1.3 75 75 Calm 30.01 1016 10 16 0.00 0.00
3:55 am 03:55 Clear 38 3.1 32 -0.1 80 80 NE 3 6 30.00 1016 10 16 0.00 0.00
4:15 am 04:15 Clear 38 3.1 32 -0.1 80 80 Calm 30.00 1016 10 16 0.00 0.00
4:35 am 04:35 Clear 36 2.1 31 -0.8 81 81 E 3 6 30.00 1016 10 16 0.00 0.00
4:55 am 04:55 Clear 37 2.6 31 -0.7 79 79 Calm 29.98 1015 10 16 0.00 0.00
5:15 am 05:15 Clear 37 2.6 31 -0.5 80 80 N 5 7 29.97 1015 10 16 0.00 0.00
5:35 am 05:35 Clear 37 2.6 31 -0.4 81 81 Calm 29.98 1015 10 16 0.00 0.00
5:55 am 05:55 Clear 37 2.9 31 -0.5 79 79 Calm 29.98 1015 10 16 0.00 0.00
6:15 am 06:15 Clear 36 2.3 31 -0.4 83 83 Calm 29.98 1015 10 16 0.00 0.00
6:35 am 06:35 Clear 35 1.6 31 -0.8 84 84 Calm 30.00 1016 10 16 0.00 0.00
6:55 am 06:55 Sunny 37 2.6 31 -0.3 81 81 Calm 29.99 1016 10 16 0.00 0.00
7:15 am 07:15 Sunny 38 3.3 32 0.1 80 80 SSE 5 7 29.98 1015 10 16 0.00 0.00
7:35 am 07:35 Sunny 40 4.2 35 1.6 83 83 Calm 29.99 1015 7 11 0.00 0.00
7:55 am 07:55 Sunny 44 6.6 37 2.9 77 77 Calm 29.96 1015 10 16 0.00 0.00
8:15 am 08:15 Sunny 48 8.7 35 1.9 63 63 Calm 29.94 1014 10 16 0.00 0.00
8:35 am 08:35 Sunny 50 9.9 36 2.4 60 60 SSE 3 6 29.93 1014 10 16 0.00 0.00
8:55 am 08:55 Partly Cloudy 54 12.4 38 3.6 55 55 S 6 9 29.91 1013 10 16 0.00 0.00
9:15 am 09:15 Sunny 58 14.5 38 3.4 48 48 SSW 6 9 29.88 1012 10 16 0.00 0.00
9:35 am 09:35 Sunny 60 15.6 37 2.7 42 42 S 9 15 29.87 1012 10 16 0.00 0.00
9:55 am 09:55 Sunny 63 17.1 37 2.8 39 39 SSW 12 19 29.85 1011 10 16 0.00 0.00
10:15 am 10:15 Sunny 65 18.3 38 3.1 37 37 S 13 20 29.84 1010 10 16 0.00 0.00
10:35 am 10:35 Sunny 66 19.1 39 3.7 36 36 SSW 12 19 29.83 1010 10 16 0.00 0.00
10:55 am 10:55 Sunny 67 19.5 40 4.5 37 37 SSW 12 19 29.83 1010 10 16 0.00 0.00
11:15 am 11:15 Sunny 68 20.1 41 5 37 37 SSW 10 17 29.81 1010 10 16 0.00 0.00
11:35 am 11:35 Sunny 69 20.6 41 5 36 36 SW 9 15 29.81 1009 10 16 0.00 0.00
11:55 am 11:55 Sunny 70 21.3 42 5.5 36 36 WSW 8 13 29.80 1009 10 16 0.00 0.00
12:15 pm 12:15 Sunny 71 21.7 41 5 34 34 SW 5 7 29.79 1009 10 16 0.00 0.00
12:35 pm 12:35 Sunny 72 22.4 41 5.2 33 33 S 5 7 29.77 1008 10 16 0.00 0.00
12:55 pm 12:55 Sunny 73 23 42 5.3 32 32 S 5 7 29.76 1008 10 16 0.00 0.00
1:15 pm 13:15 Sunny 73 23 40 4.2 29 29 Calm 29.75 1007 10 16 0.00 0.00
1:35 pm 13:35 Sunny 74 23.5 39 3.8 28 28 WNW 6 9 29.73 1007 10 16 0.00 0.00
1:55 pm 13:55 Sunny 75 24 41 5.2 30 30 NNW 6 9 29.72 1006 10 16 0.00 0.00
2:15 pm 14:15 Sunny 75 24.1 41 4.9 29 29 Calm 29.72 1006 10 16 0.00 0.00
2:35 pm 14:35 Sunny 76 24.6 40 4.7 28 28 W 6 9 29.70 1006 10 16 0.00 0.00
2:55 pm 14:55 Sunny 77 24.9 40 4.5 27 27 SSW 5 7 29.70 1006 10 16 0.00 0.00
3:15 pm 15:15 Sunny 77 25 39 4.1 26 26 NNW 3 6 29.70 1006 10 16 0.00 0.00
3:35 pm 15:35 Sunny 77 25.1 39 4 26 26 W 6 9 29.69 1005 10 16 0.00 0.00
3:55 pm 15:55 Sunny 78 25.6 41 4.9 26 26 N 3 6 29.67 1005 10 16 0.00 0.00
4:15 pm 16:15 Sunny 78 25.5 39 4.1 25 25 E 8 13 29.66 1004 10 16 0.00 0.00
4:35 pm 16:35 Sunny 78 25.5 39 4.1 25 25 NE 5 7 29.66 1004 10 16 0.00 0.00
4:55 pm 16:55 Partly Cloudy 78 25.7 40 4.7 26 26 N 5 7 29.65 1004 10 16 0.00 0.00
5:15 pm 17:15 Partly Cloudy 78 25.4 40 4.4 26 26 ESE 6 9 29.65 1004 10 16 0.00 0.00
5:35 pm 17:35 Sunny 78 25.7 40 4.3 25 25 E 7 11 29.65 1004 10 16 0.00 0.00
5:55 pm 17:55 Sunny 78 25.5 41 5.2 27 27 E 6 9 29.65 1004 10 16 0.00 0.00
6:15 pm 18:15 Sunny 78 25.6 40 4.7 26 26 SE 5 7 29.65 1004 10 16 0.00 0.00
6:35 pm 18:35 Sunny 76 24.5 42 5.4 29 29 ESE 3 6 29.66 1004 10 16 0.00 0.00
6:55 pm 18:55 Sunny 77 24.9 42 5.7 29 29 E 3 6 29.65 1004 10 16 0.00 0.00
7:15 pm 19:15 Sunny 75 24 44 6.6 33 33 E 3 6 29.65 1004 10 16 0.00 0.00
7:35 pm 19:35 Sunny 73 22.6 44 6.4 35 35 ESE 5 7 29.66 1004 10 16 0.00 0.00
7:55 pm 19:55 Sunny 71 21.9 44 6.7 37 37 SE 6 9 29.67 1005 10 16 0.00 0.00
8:15 pm 20:15 Partly Cloudy 71 21.4 41 5.1 35 35 SE 6 9 29.67 1005 10 16 0.00 0.00
8:35 pm 20:35 Clear 69 20.6 42 5.4 37 37 SE 6 9 29.68 1005 10 16 0.00 0.00
8:55 pm 20:55 Clear 67 19.6 42 5.8 41 41 SSE 5 7 29.69 1005 10 16 0.00 0.00
9:15 pm 21:15 Clear 66 18.7 42 5.5 42 42 SE 7 11 29.69 1006 10 16 0.00 0.00
9:35 pm 21:35 Clear 63 17 43 5.9 48 48 SSE 7 11 29.72 1006 10 16 0.00 0.00
9:55 pm 21:55 Clear 62 16.8 42 5.3 47 47 SSE 6 9 29.72 1006 10 16 0.00 0.00
10:15 pm 22:15 Clear 59 15.2 42 5.5 53 53 S 7 11 29.74 1007 10 16 0.00 0.00
10:35 pm 22:35 Clear 58 14.5 42 5.7 56 56 S 9 15 29.74 1007 10 16 0.00 0.00
10:55 pm 22:55 Clear 59 14.9 43 6.2 56 56 S 9 15 29.74 1007 10 16 0.00 0.00
11:15 pm 23:15 Clear 60 15.6 43 5.9 53 53 S 10 17 29.73 1007 10 16 0.00 0.00
11:35 pm 23:35 Clear 60 15.5 42 5.5 52 52 S 9 15 29.73 1007 10 16 0.00 0.00
11:55 pm 23:55 Clear 60 15.6 41 5.1 50 50 SSW 10 17 29.73 1007 10 16 0.00 0.00

Powered by AerisWeather